[keps] orb08045.2l.amsat
Ray Hoad
r.hoad at att.net
Thu Feb 14 18:31:56 PST 2008
SB KEPS @ AMSAT $ORB08045.N
2Line Orbital Elements 08045.AMSAT
HR AMSAT ORBITAL ELEMENTS FOR AMATEUR SATELLITES IN NASA FORMAT
FROM WA5QGD FORT WORTH,TX February 14, 2008
Send Subscribe/unsubscribe to KEPS at
http://www.amsat.org/mailman/listinfo/keps
BID: ORB08045.N
DECODE 2-LINE ELSETS WITH THE FOLLOWING KEY:
1 AAAAAU 00 0 0 BBBBB.BBBBBBBB .CCCCCCCC 00000-0 00000-0 0 DDDZ
2 AAAAA EEE.EEEE FFF.FFFF GGGGGGG HHH.HHHH III.IIII JJ.JJJJJJJJKKKKKZ
KEY: A-CATALOGNUM B-EPOCHTIME C-DECAY D-ELSETNUM E-INCLINATION F-RAAN
G-ECCENTRICITY H-ARGPERIGEE I-MNANOM J-MNMOTION K-ORBITNUM Z-CHECKSUM
TO ALL RADIO AMATEURS BT
AO-07
1 07530U 74089B 08044.71573374 -.00000027 00000-0 10000-3 0 01048
2 07530 101.4839 080.3065 0012074 144.7709 215.4160 12.53573488521385
AO-10
1 14129U 83058B 08040.55461412 -.00000198 00000-0 10000-3 0 4696
2 14129 025.9289 231.2610 6031464 097.3310 330.6746 02.05872724185455
UO-11
1 14781U 84021B 08044.89054173 -.00000064 00000-0 -11932-5 0 05965
2 14781 098.1697 076.9718 0010026 111.7106 248.5111 14.79616544285472
RS-15
1 23439U 94085A 08044.93397273 -.00000039 00000-0 10000-3 0 01120
2 23439 064.8225 335.9774 0150974 146.4164 214.6440 11.27551375540951
FO-29
1 24278U 96046B 08044.95554304 .00000015 00000-0 50309-4 0 07152
2 24278 098.5838 337.5091 0350692 177.0031 183.3324 13.52934875567591
SO-33
1 25509U 98061B 08044.77046327 .00000437 00000-0 76681-4 0 1311
2 25509 031.4315 299.8312 0354453 019.3584 342.0099 14.28196166485815
AO-40
1 26609U 00072B 08045.39705915 -.00000420 00000-0 10000-3 0 80
2 26609 007.4019 097.5622 7925140 051.7766 355.9138 01.25582521 33480
VO-52
1 28650U 05017B 08044.85731822 .00000000 00000-0 67207-5 0 08576
2 28650 097.8032 114.8061 0027135 183.8968 176.1984 14.81419969150198
PO-63
1 29712U 07001D 08045.77923746 .00000523 00000-0 75812-4 0 1866
2 29712 097.8911 106.2110 0015265 064.1791 296.0978 14.80021710 59218
AO-16
1 20439U 90005D 08045.51769315 -.00000005 00000-0 13208-4 0 2511
2 20439 098.2186 031.9774 0010513 180.6082 179.5093 14.31784087943227
LO-19
1 20442U 90005G 08044.88683185 -.00000023 00000-0 64959-5 0 01760
2 20442 098.1948 040.2657 0011866 180.4102 179.7063 14.32022950943282
AO-27
1 22825U 93061C 08045.70724964 .00000175 00000-0 85287-4 0 8989
2 22825 098.3679 010.4642 0007584 267.0748 092.9580 14.29231081750138
IO-26
1 22826U 93061D 08045.57272901 -.00000018 00000-0 94508-5 0 6009
2 22826 098.3603 011.3010 0008096 263.9588 096.0681 14.29477856750208
PO-28
1 22829U 93061G 08044.92021087 .00000078 00000-0 46347-4 0 08753
2 22829 098.3506 011.8011 0008924 235.1889 124.8458 14.30180296750364
GO-32
1 25397U 98043D 08044.66681363 -.00000116 00000-0 -33065-4 0 05262
2 25397 098.3815 085.8809 0000507 205.4685 154.6490 14.23137863498505
MO-46
1 26548U 00057D 08045.71533033 .00000121 00000-0 32610-4 0 237
2 26548 064.5574 152.3240 0015124 340.6692 019.3825 14.83227423399508
NO-44
1 26931U 01043C 08044.81892356 -.00000119 00000-0 -14189-4 0 08064
2 26931 067.0509 245.0429 0004639 270.2935 089.7583 14.29511739332635
SO-50
1 27607U 02058C 08044.55593860 .00000107 00000-0 38556-4 0 05292
2 27607 064.5579 072.1304 0079994 304.3113 055.0437 14.71326823276635
CO-55
1 27844U 03031E 08044.69841038 .00000030 00000-0 34339-4 0 2359
2 27844 098.7186 054.6801 0010572 112.8870 247.3421 14.20559845239765
CO-57
1 27848U 03031J 08045.52519658 .00000013 00000-0 26401-4 0 1908
2 27848 098.7184 054.6180 0010518 115.0728 245.1524 14.20372177239855
AO-51
1 28375U 04025K 08044.93097368 .00000002 00000-0 13326-4 0 00315
2 28375 098.0849 076.4107 0083537 169.1578 191.1439 14.40596473190510
CO-56
1 28941U 06005C 08045.73916275 .00031676 25876-5 26705-3 0 8473
2 28941 098.1022 140.2966 0189554 127.6684 234.1900 15.50300123110878
NO-61
1 29664U 06055F 07359.16654419 .14620719 12705-4 12723-3 0 7381
2 29664 051.6179 150.0690 0003189 248.8461 111.8136 16.51627846 58777
CP4
1 31122U 07012F 08044.69905700 .00000550 00000-0 13192-3 0 02623
2 31122 098.0552 114.8347 0085727 356.4010 003.6548 14.55086994043976
CP3
1 31128U 07012M 08044.66905569 -.00000048 00000-0 00000-0 0 02577
2 31128 098.0526 113.2908 0103003 000.5336 359.6098 14.51913171043869
LIBERT
1 31129U 07012N 08045.82221204 .00000337 00000-0 89029-4 0 7515
2 31129 098.0546 114.4264 0102328 356.8409 003.2122 14.52003615 44019
NOAA-10
1 16969U 86073A 08044.58809267 .00000053 00000-0 39656-4 0 00066
2 16969 098.7329 066.7448 0012158 181.1943 178.9226 14.27350550113664
NOAA-11
1 19531U 88089A 08044.84635882 -.00000036 00000-0 38911-5 0 00417
2 19531 098.7990 135.9082 0012215 064.8596 295.3846 14.14865298000320
NOAA-12
1 21263U 91032A 08044.89685847 .00000045 00000-0 37739-4 0 05471
2 21263 098.7661 046.8696 0013283 124.3161 235.9258 14.25516281870685
MET-3/5
1 21655U 91056A 08044.90727886 .00000051 00000-0 10000-3 0 04257
2 21655 082.5560 192.1625 0012760 329.0411 030.9963 13.17013592793224
MET-2/21
1 22782U 93055A 08044.82834951 -.00000026 00000-0 -36780-4 0 00640
2 22782 082.5458 210.2063 0021088 279.3454 080.5327 13.83625171729934
OKEAN-4
1 23317U 94066A 08045.68376250 -.00000022 00000-0 -56879-5 0 5065
2 23317 082.5351 070.3075 0022436 169.4615 190.7076 14.82577084719983
NOAA-14
1 23455U 94089A 08044.77375550 -.00000220 00000-0 -92794-4 0 00211
2 23455 098.9596 116.8859 0010191 133.8430 226.3582 14.13733370676772
SICH-1
1 23657U 95046A 08045.68900741 .00000036 00000-0 14678-5 0 3050
2 23657 082.5260 211.2459 0024352 162.3820 197.8224 14.81550643671936
NOAA-15
1 25338U 98030A 08044.90932720 -.00000098 00000-0 -23757-4 0 03530
2 25338 098.5492 039.9706 0011357 048.0962 312.1176 14.24685303507100
RESURS
1 25394U 98043A 08045.66724809 -.00000011 00000-0 13211-4 0 8563
2 25394 098.4055 095.1523 0001070 164.3363 195.7847 14.24153248498865
FENGYUN1
1 25730U 99025A 08044.95663592 .00000195 00000-0 13986-3 0 03868
2 25730 098.7148 024.9859 0021272 158.6710 201.5349 14.07686156451485
OKEAN-0
1 25860U 99039A 08044.84810990 .00000042 00000-0 13696-4 0 2882
2 25860 097.7426 040.9460 0001134 036.0353 324.0948 14.73502035461089
NOAA-16
1 26536U 00055A 08044.88869612 -.00000125 00000-0 -42385-4 0 08069
2 26536 099.1480 031.3991 0010084 211.2520 148.8074 14.12467424381220
NOAA-17
1 27453U 02032A 08044.82145280 -.00000024 00000-0 81807-5 0 08067
2 27453 098.5494 112.9741 0012710 110.1367 250.1182 14.23948438293107
NOAA-18
1 28654U 05018A 08044.83000279 .00000264 00000-0 17065-3 0 03172
2 28654 098.8568 347.3683 0013797 308.2653 051.7300 14.11136654140934
HUBBLE
1 20580U 90037B 08044.28668243 .00000348 00000-0 14130-4 0 00729
2 20580 028.4686 057.8271 0004129 139.9962 220.0932 15.00336558776202
UARS
1 21701U 91063B 08044.91838600 .00006208 00000-0 10089-3 0 03015
2 21701 056.9759 343.1709 0081168 302.0178 057.3011 15.50576522903216
PO-34
1 25520U 98064B 08044.93654621 .00000545 00000-0 17075-4 0 09328
2 25520 028.4600 290.5913 0005271 010.9585 349.1121 15.17132111514271
ISS
1 25544U 98067A 08046.07934068 -.00003669 00000-0 -17028-4 0 9229
2 25544 051.6360 291.0182 0005713 044.9489 042.0622 15.78232706529104
OO-38
1 26063U 00004C 08044.83589622 -.00000031 00000-0 96153-5 0 01378
2 26063 100.2077 096.9155 0036796 199.4022 160.5740 14.35827325421728
UWE-1
1 28892U 05043C 08044.73072745 .00000178 00000-0 47009-4 0 09767
2 28892 098.1095 301.2517 0018454 078.3155 282.0144 14.59592411122448
CO-58
1 28895U 05043F 08044.70215326 .00000174 00000-0 46219-4 0 09488
2 28895 098.1136 301.5315 0019014 079.4917 280.8433 14.59634733122325
NCUBE2
1 28897U 05043H 08044.68110962 .00000128 00000-0 36300-4 0 4773
2 28897 098.1113 301.4489 0018229 079.6836 280.6448 14.59802501114608
FCAL
1 29667U 06055J 08045.88057851 .00049040 12461-4 89956-4 0 7517
2 29667 051.6299 251.3016 0008706 216.8535 143.1870 16.01706291 66709
FALCON
1 30776U 07006E 08044.75246481 .00000383 00000-0 31043-4 0 02609
2 30776 035.4321 188.1043 0001785 344.6798 015.3864 15.02877839051418
MAST
1 31126U 07012K 08044.77085092 .00000033 00000-0 18271-4 0 02562
2 31126 098.0541 114.0977 0095083 358.1447 001.9373 14.53398838043943
CAPE1
1 31130U 07012P 08044.73415967 .00000093 00000-0 32593-4 0 02458
2 31130 098.0531 113.3567 0102862 000.3360 359.7883 14.51930907043664
/EX
More information about the Keps
mailing list